Location: *
(50.5492°N, 7.7469°E)
Time: 05:13:11
(UTC+00:00)

ATLAS 5 CENTAUR R/B - Pass Details

Date: 21 October 2019
Orbit: 557 x 1102 km, 63.4° (Epoch: 11 November)

Event Time Altitude Azimuth Distance (km) Brightness Sun altitude
Rises 18:29:31 0° 278° (W) 2,911 6.6 -20.3°
Reaches altitude 10° 18:32:07 10° 293° (WNW) 2,077 5.3 -20.7°
Maximum altitude 18:35:51 23° 346° (NNW) 1,511 3.7 -21.3°
Enters shadow 18:39:01 14° 30° (NNE) 2,051 4.0 -21.8°
